Home   Weather   Avebury   Past weeks
Flag for United Kingdom

Past Weather in Avebury, England, United Kingdom — Yesterday and Last 2 Weeks

Now
72 °F

Passing clouds.


Feels Like: 74 °F
Forecast: 84 / 57 °F
Wind: 2 mph from Southwest

Location: Brize Norton

Current Time: Jul 22, 2019 at 9:59:20 pm

Latest Report: Jul 22, 2019 at 9:20 pm


Visibility: N/A

Pressure: 30.15 "Hg

Humidity: 73%

Dew Point: 63 °F

Location of AveburyLocation

Past Weather in Avebury — Graph

°F

Avebury Temperature Yesterday

Maximum temperature yesterday: 72 °F (at 1:50 pm)
Minimum temperature yesterday: 54 °F (at 3:20 am)
Average temperature yesterday: 64 °F

High & Low Weather Summary for the Past Weeks

 TemperatureHumidityPressure
High79 °F (Jul 16, 3:50 pm)100% (Jul 15, 4:50 am)30.24 "Hg (Jul 15, 4:50 am)
Low48 °F (Jul 15, 4:50 am)32% (Jul 16, 3:50 pm)29.65 "Hg (Jul 20, 3:50 am)
Average65 °F71%30.03 "Hg
* Reported Jul 7 8:20 pm — Jul 22 8:20 pm, Avebury. Weather by CustomWeather, © 2019

Note: Actual official high and low records may vary slightly from our data, if they occured in-between our weather recording intervals... More about our weather records

Advertising

Avebury Weather History for the Previous 24 Hours

Scroll right to see more
 ConditionsComfort  
Time TempWeatherWind HumidityBarometerVisibility
8:20 pm
Mon, Jul 22
73 °FPassing clouds.5 mph65%30.15 "HgN/A
7:50 pm75 °FScattered clouds.7 mph65%30.15 "HgN/A
6:50 pm77 °FPartly sunny.7 mph65%30.15 "HgN/A
6:20 pm77 °FScattered clouds.5 mph65%30.15 "HgN/A
5:50 pm77 °FScattered clouds.7 mph61%30.15 "HgN/A
4:50 pm77 °FPassing clouds.7 mph61%30.15 "HgN/A
4:20 pm79 °FScattered clouds.8 mph58%30.15 "HgN/A
3:50 pm79 °FScattered clouds.8 mph58%30.15 "HgN/A
3:20 pm79 °FPassing clouds.8 mph58%30.15 "HgN/A
2:50 pm79 °FPassing clouds.9 mph61%30.15 "HgN/A
2:20 pm77 °FScattered clouds.9 mph61%30.15 "HgN/A
1:50 pm77 °FPartly sunny.10 mph65%30.18 "HgN/A
12:50 pm73 °FBroken clouds.8 mph69%30.18 "HgN/A
12:20 pm73 °FBroken clouds.8 mph69%30.18 "HgN/A
11:50 am72 °FPartly sunny.8 mph73%30.18 "HgN/A
11:20 am72 °FPartly sunny.7 mph73%30.18 "HgN/A
10:50 am72 °FPartly sunny.9 mph73%30.15 "HgN/A
10:20 am72 °FPartly sunny.8 mph73%30.15 "HgN/A
9:50 am72 °FPartly sunny.8 mph69%30.15 "HgN/A
9:20 am70 °FPartly sunny.8 mph78%30.15 "HgN/A
8:50 am68 °FPartly sunny.7 mph83%30.15 "HgN/A
8:20 am68 °FPartly sunny.7 mph83%30.15 "HgN/A
7:50 am66 °FPartly sunny.7 mph83%30.15 "HgN/A
6:50 am64 °FBroken clouds.8 mph88%30.12 "HgN/A
6:20 am64 °FBroken clouds.5 mph88%30.12 "HgN/A
5:50 am64 °FMostly cloudy.5 mph83%30.12 "HgN/A
5:20 am64 °FMostly cloudy.6 mph83%30.12 "HgN/A
4:50 am64 °FMostly cloudy.6 mph83%30.12 "HgN/A
4:20 am64 °FPassing clouds.9 mph83%30.12 "HgN/A
3:50 am64 °FPassing clouds.7 mph83%30.12 "HgN/A
3:20 am63 °FPartly cloudy.8 mph88%30.12 "HgN/A
2:50 am63 °FPartly cloudy.6 mph88%30.12 "HgN/A
2:20 am63 °FPassing clouds.9 mph83%30.12 "HgN/A
1:50 am63 °FPassing clouds.7 mph88%30.12 "HgN/A
1:20 am61 °FPassing clouds.7 mph88%30.12 "HgN/A
12:50 am61 °FPassing clouds.8 mph88%30.12 "HgN/A
12:20 am61 °FPassing clouds.8 mph88%30.12 "HgN/A
11:50 pm
Sun, Jul 21
61 °FClear.7 mph88%30.12 "Hg10 mi
11:20 pm63 °FClear.6 mph77%30.15 "Hg10 mi
10:50 pm63 °FClear.6 mph77%30.12 "Hg10 mi
10:20 pm63 °FClear.5 mph77%30.12 "Hg10 mi
9:50 pm64 °FClear.5 mph68%30.12 "Hg10 mi
9:20 pm66 °FClear.8 mph64%30.12 "Hg10 mi
Weather by CustomWeather, © 2019

See weather overview